Location: Frickenfelden
(49.1175°N, 10.8017°E)
Time: 23:59:05
(UTC+00:00)

Daily predictions for brighter satellites

Satellite Brightness Start Highest point End
(mag) Time Altitude Azimuth Time Altitude Azimuth Time Altitude Azimuth
Cosmos 1515 3.7 19:41:20 10° S 19:45:03 63° E 19:48:48 10° NNE
SPOT 1/Viking Rocket 3.6 19:41:28 10° SSE 19:46:39 81° ENE 19:51:50 10° NNW
Helios 1A Rocket 3.9 19:43:33 10° SE 19:47:06 32° ENE 19:50:40 10° N
Meteor 1-27 Rocket 3.8 19:42:06 10° S 19:47:49 70° E 19:53:42 10° NNE
Cosmos 1633 Rocket 4.2 19:46:29 10° NNW 19:50:40 44° W 19:54:47 10° SSW
Cosmos 2219 3.9 19:46:32 10° NW 19:52:00 52° WSW 19:57:25 10° S
Cosmos 2034 Rocket 4.4 19:46:47 10° SSE 19:52:46 48° E 19:58:51 10° NNE
SJ 16-02 2.2 19:50:45 10° SSE 19:54:36 31° ESE 19:58:29 10° NE
Cosmos 2278 4.5 19:50:10 10° SSE 19:55:04 31° ESE 20:00:01 10° NE
Cosmos 1340 2.6 19:51:41 10° S 19:55:24 71° E 19:59:08 10° NNE
Cosmos 2082 3.8 19:53:16 10° NNW 19:58:55 84° WSW 20:04:33 10° SSE
Meteor 1-11 Rocket 4.3 19:53:51 10° NNW 19:59:46 65° W 20:05:37 10° S
Cosmos 482 Debris 3.6 19:58:57 10° WNW 20:01:35 86° SSW 20:05:34 10° ESE
Cosmos 2263 Rocket 2.5 19:56:32 10° NNW 20:02:04 58° ENE 20:07:29 10° SE
Cosmos 1470 Rocket 4.2 19:57:50 10° NNW 20:02:05 55° W 20:06:17 10° S
Cosmos 1743 3.0 20:01:35 10° NNW 20:05:21 67° W 20:09:06 10° S
Ariane Rocket 3.2 20:01:28 10° S 20:06:32 74° WSW 20:11:38 10° NNW
IRAS Rocket 4.3 20:05:33 10° NNE 20:11:13 89° WNW 20:16:52 10° SSW
SPOT 5 3.4 20:06:32 10° SE 20:11:39 52° ENE 20:16:36 10° N
BREEZE-M DEB (TANK) 1.6 20:09:15 10° W 20:11:54 87° NNW 20:14:07 10° E
Terra 2.7 20:09:04 11° SE 20:13:17 37° ENE 20:17:39 10° N
Resurs 01 Rocket 2.6 20:11:09 10° S 20:15:21 44° W 20:19:36 10° NNW
Cosmos 1346 Rocket 4.3 20:15:00 12° SE 20:17:29 21° E 20:20:31 10° NE
Aureole 1 Rocket 2.8 20:14:25 10° SW 20:17:30 58° WNW 20:20:28 10° NNE
Cosmos 1809 Rocket 4.5 20:11:52 10° N 20:18:02 89° ENE 20:24:13 10° S
Cosmos 1515 Rocket 4.1 20:13:52 10° SSW 20:18:11 62° WNW 20:22:35 10° N
Cosmos 2227 Rocket 3.8 20:14:54 10° NW 20:19:45 30° WSW 20:24:35 10° SSW
Cosmos 921 Rocket 3.4 20:16:39 10° NNW 20:21:09 66° WSW 20:25:34 10° S
Geosat FO 4.5 20:23:26 15° SE 20:26:09 73° ENE 20:29:29 10° NNW
Cosmos 1980 Rocket 2.2 20:24:48 10° SSW 20:30:26 86° ESE 20:36:09 10° NNE
Cosmos 1869 Rocket 3.6 20:25:57 10° N 20:30:28 86° E 20:34:33 12° S
CARTOSAT-1 3.9 20:26:29 10° S 20:30:45 64° W 20:35:03 10° NNW
SL-24 R/B - RUBIN 2 3.8 20:26:38 10° NW 20:30:59 66° NE 20:34:41 15° SE
Cosmos 2228 Rocket 3.2 20:29:18 10° S 20:33:49 65° E 20:38:20 10° NNE
Cosmos 1464 Rocket 4.4 20:28:53 10° SSW 20:35:01 64° WNW 20:41:09 10° N
Cosmos 1378 3.3 20:34:31 15° SSE 20:37:22 49° E 20:40:55 10° NNE
Cosmos 2344 3.5 20:31:19 10° SW 20:38:47 87° SE 20:46:37 10° NE
Cosmos 2322 Rocket 3.4 20:36:17 15° SE 20:39:14 23° ESE 20:43:31 10° NE
ISS -3.6 20:36:00 10° WNW 20:39:20 60° SSW 20:41:27 20° SE
Cosmos 1777 Rocket 4.0 20:34:30 10° S 20:39:39 64° ESE 20:44:51 10° NNE
Cosmos 2369 4.0 20:34:31 10° SW 20:40:09 73° WNW 20:45:51 10° NNE
Spot 2 Rocket 3.5 20:35:42 13° SSE 20:40:12 89° WSW 20:45:17 10° NNW
Cosmos 773 Rocket 4.3 20:35:40 10° NNW 20:40:51 65° WSW 20:45:19 14° S
Cosmos 1354 Rocket 4.1 20:35:37 10° SSW 20:40:53 84° WNW 20:46:15 10° NNE
SPOT 3 Rocket 4.0 20:36:23 10° S 20:41:27 58° WSW 20:46:33 10° NNW
Cosmos 1844 Rocket 4.0 20:36:30 10° NNW 20:41:27 31° NE 20:46:18 10° ESE
ATLAS 2AS CENTAUR R/B 2.9 20:35:45 10° SSW 20:43:30 71° SE 20:51:01 10° NE
Okean 1 3.6 20:41:10 10° SSW 20:45:09 69° W 20:49:11 10° N
Meteor 2-4 Rocket 3.9 20:40:22 12° S 20:45:39 56° E 20:51:09 10° NNE
Cosmos 1092 Rocket 4.0 20:40:32 10° N 20:46:46 86° E 20:52:05 14° S
Meteor 1-19 Rocket 4.2 20:41:52 10° SSW 20:47:18 81° WNW 20:52:45 10° N
NOSS 3-4 (A) 4.5 20:42:49 10° WSW 20:48:26 49° NW 20:54:37 10° NE
NOSS 3-4 (C) 4.5 20:42:51 10° WSW 20:48:29 49° NW 20:54:41 10° NE
RESURS DK-1 2.3 20:45:08 10° SSW 20:49:15 81° ESE 20:53:23 10° NNE
Cosmos 1697 Rocket 4.1 20:44:12 10° WSW 20:49:34 41° NW 20:54:56 10° NNE
SL-4 R/B 4.3 20:46:59 10° W 20:49:38 15° SW 20:52:09 10° SSW
USA 267 4.2 20:47:26 10° E 20:53:39 48° N 20:59:53 10° WNW
Cosmos 1634 Rocket 4.0 20:49:58 12° S 20:55:39 68° E 21:01:48 10° NNE
ARIANE 5 R/B 2.7 20:53:39 20° SSE 20:56:45 73° ENE 21:01:15 10° N
ATLAS CENTAUR R/B 3.4 20:52:52 10° NNW 20:57:08 28° NNE 21:01:16 10° E
Cosmos 1707 Rocket 3.6 20:54:12 17° S 20:57:31 62° E 21:01:53 10° NNE
Cosmos 44 Rocket 3.3 20:53:42 10° NW 20:58:25 71° SW 21:01:28 21° SSE
Cosmos 2227 4.3 20:58:09 10° NNW 21:03:55 78° WSW 21:07:59 20° SSE
Cosmos 1733 4.2 21:01:21 10° N 21:04:49 33° ENE 21:06:32 22° ESE
Cosmos 158 Rocket 4.2 21:00:37 10° NNW 21:05:43 67° WSW 21:09:24 19° S
ATLAS 3B R/B 2.9 21:00:14 10° NW 21:07:36 87° NE 21:13:24 19° SE
NOSS 2-1 (E) 3.1 21:08:10 26° S 21:09:29 41° SE 21:12:35 10° NE
Cosmos 1975 3.2 21:06:49 10° NNW 21:10:51 60° W 21:13:33 19° S
Cosmos 2026 Rocket 4.1 21:05:51 10° NNW 21:11:59 74° W 21:17:00 16° S
USA 81 4.0 21:09:01 17° S 21:13:10 84° E 21:18:29 10° N
ERS-1 Rocket 3.6 21:12:33 16° S 21:16:27 52° W 21:21:23 10° NNW
SL-16 R/B 2.3 21:13:28 14° S 21:18:12 59° ESE 21:23:48 10° NE
Meteor 1-4 Rocket 2.9 21:14:52 10° N 21:18:16 49° ENE 21:19:36 31° SE
CZ-4C R/B 4.0 21:13:03 10° NW 21:19:19 39° NNE 21:26:46 10° E
Cosmos 1538 Rocket 4.1 21:15:52 10° NNW 21:21:05 70° WSW 21:24:18 23° S
CZ-2C R/B 4.2 21:18:22 10° N 21:23:06 65° WNW 21:27:47 10° SSW
GENESIS II 4.0 21:20:47 10° SSW 21:24:37 78° SE 21:28:33 10° NE
Meteor 2-10 4.4 21:19:49 10° N 21:24:59 51° ENE 21:27:49 25° SE
Cosmos 1733 Rocket 3.2 21:20:42 10° NNW 21:25:09 75° W 21:27:44 25° S
Geosat 4.0 21:28:35 26° SSE 21:31:29 86° WSW 21:36:33 10° NNW
OE (NEXTSAT) 4.3 21:28:22 10° WSW 21:31:35 49° S 21:32:08 43° SE
SAR-Lupe-4 3.4 21:28:09 10° NNE 21:31:46 79° ESE 21:33:22 31° S
EP 1 4.4 21:29:19 14° SW 21:32:07 86° SE 21:34:52 10° NE
ERS-2 4.5 21:31:36 10° ENE 21:32:25 11° E 21:32:29 11° E
SJ 16-02 3.1 21:29:12 10° WSW 21:33:08 32° WNW 21:37:05 10° N
Cosmos 1356 3.5 21:35:10 42° SE 21:35:55 54° E 21:39:09 10° NNE
Cosmos 1908 Rocket 3.8 21:32:30 10° N 21:36:47 54° ENE 21:38:37 31° SE
Cosmos 923 Rocket 4.0 21:33:54 10° NNW 21:39:16 79° ENE 21:42:10 28° SSE
Cosmos 1862 Rocket 3.7 21:37:32 23° SSW 21:40:18 78° W 21:44:50 10° N
Cosmos 2360 Rocket 2.6 21:40:43 27° SSE 21:43:19 45° ESE 21:48:40 10° NE
Cosmos 1726 2.8 21:40:34 10° N 21:44:05 41° ENE 21:45:09 32° ESE
Cosmos 1937 Rocket 4.3 21:42:39 27° SE 21:44:26 34° ESE 21:49:11 10° NE
Cosmos 2263 Rocket 3.7 21:41:04 10° NW 21:45:37 26° WSW 21:49:11 14° SSW
ALOS 2 4.0 21:44:37 19° ESE 21:46:46 29° ENE 21:50:34 10° N
Meteor 1-13 Rocket 4.2 21:44:29 26° S 21:47:39 69° E 21:53:10 10° NNE
Cosmos 2266 Rocket 4.1 21:41:37 10° N 21:47:52 69° ENE 21:51:20 27° SSE
NOSS 2-1 (C) 3.2 21:46:44 10° SW 21:49:53 63° NW 21:53:09 10° NE
Terra 3.2 21:47:57 16° SSW 21:51:04 31° W 21:55:19 10° NNW
Cosmos 1441 Rocket 3.3 21:51:04 30° SSW 21:52:45 68° WNW 21:56:29 10° N
Cosmos 1346 Rocket 4.1 21:50:23 14° SW 21:53:32 38° WNW 21:57:19 10° N
Cosmos 2279 Rocket 4.2 21:53:29 18° SSW 21:58:16 68° WNW 22:04:30 10° N
USA 215 3.6 21:53:29 10° ENE 21:59:42 44° SE 22:03:43 21° SSW
Cosmos 2112 Rocket 4.0 21:54:29 10° NNW 21:59:52 77° ENE 22:02:27 31° SSE
NOSS 2-1 (D) 3.6 21:57:14 10° WSW 22:00:22 49° NW 22:03:35 10° NE
Cosmos 1680 Rocket 3.5 21:55:35 10° NNW 22:00:56 89° ENE 22:03:26 32° SSE
Cosmos 2278 Rocket 4.1 21:56:38 10° N 22:01:08 23° NE 22:05:36 10° E
Cosmos 990 Rocket 3.9 21:57:54 23° SSW 22:01:17 89° ESE 22:06:34 10° NNE
Cosmos 1842 4.0 22:03:47 34° ESE 22:04:29 37° E 22:08:05 10° NNE
Meteor 1-12 Rocket 4.3 21:59:52 10° NNW 22:05:51 82° W 22:08:54 30° S
Cosmos 1066 Rocket 4.4 22:05:06 22° SSW 22:08:55 73° WNW 22:14:35 10° N
ADEOS Rocket 3.8 22:05:31 20° ESE 22:08:59 41° ENE 22:14:37 10° N
Spot 4 3.9 22:07:13 34° SSE 22:09:17 75° ENE 22:14:06 10° N
Cosmos 1818 3.5 22:03:57 10° NW 22:09:27 88° SW 22:12:08 31° SE
Iridium 4 Rocket 3.2 22:07:07 10° N 22:11:42 86° E 22:13:44 36° S
Cosmos 1898 Rocket 3.5 22:11:50 29° SSW 22:14:38 80° ESE 22:19:58 10° NNE
ISS -1.2 22:13:57 10° WSW 22:14:21 11° WSW 22:14:21 11° WSW
Cosmos 1900 4.4 22:15:19 33° S 22:17:30 63° ESE 22:22:34 10° NE
Okean 1-7 3.0 22:17:26 37° SSW 22:19:07 82° W 22:23:31 10° N
Cosmos 2322 Rocket 2.5 22:18:02 15° SW 22:22:46 66° WNW 22:28:23 10° NNE
NOSS 4 (H) 4.5 22:22:20 10° NW 22:25:21 89° SW 22:25:33 77° SE
Cosmos 1844 Rocket 3.0 22:20:12 10° NW 22:25:40 55° WSW 22:27:57 33° S
Okean 3 3.4 22:25:02 43° S 22:26:23 89° W 22:30:40 10° N
Cosmos 2322 4.3 22:25:29 32° SSE 22:27:20 42° ESE 22:32:42 10° NE
Cosmos 2333 Rocket 2.4 22:25:17 34° S 22:27:32 56° ESE 22:33:05 10° NE
H-2A R/B 3.4 22:27:14 10° NNE 22:31:21 68° ESE 22:32:20 48° SSE
Cosmos 1461 3.4 22:27:53 10° NNW 22:31:58 57° NE 22:33:55 29° ESE
BREEZE-M DEB (TANK) 3.9 22:30:22 10° W 22:31:52 22° SW 22:31:52 22° SW
ATLAS 2AS CENTAUR R/B 4.1 22:27:40 10° WSW 22:35:00 43° NNW 22:42:02 10° NE
USA 229 DEB 4.4 22:28:04 10° NW 22:35:12 58° NE 22:42:49 10° ESE
USA 229 4.4 22:28:10 10° NW 22:35:17 57° NE 22:42:54 10° ESE
USA 267 3.3 22:29:45 10° ESE 22:36:19 82° NNE 22:42:53 10° NW
ATLAS CENTAUR R/B 1.7 22:31:30 10° NW 22:36:22 69° SW 22:37:50 43° SSE
Meteor 1-23 Rocket 4.3 22:34:02 31° SSW 22:37:01 84° WNW 22:42:54 10° N
Cosmos 1766 4.3 22:38:44 10° NNW 22:42:23 37° W 22:43:23 31° SW
Cosmos 2219 Rocket 2.3 22:44:47 37° S 22:46:53 60° ESE 22:52:24 10° NE
Nadezhda 2 Rocket 4.5 22:41:44 10° N 22:47:55 74° E 22:50:51 33° SSE
Cosmos 1844 4.3 22:43:49 10° NW 22:49:19 44° WSW 22:51:27 31° SSW
Cosmos 1703 Rocket 4.4 22:48:15 27° SW 22:50:16 44° WNW 22:54:31 10° N
Cosmos 2221 Rocket 4.3 22:51:06 34° SE 22:52:10 40° E 22:56:18 10° NNE
Cosmos 372 Rocket 3.9 22:51:17 36° SSW 22:53:26 89° ESE 22:58:39 10° NNE
Cosmos 1048 Rocket 4.4 22:49:24 10° NNW 22:54:30 54° ENE 22:57:08 27° SE
ATLAS 3B R/B 4.1 22:51:47 10° WNW 22:57:40 26° WSW 23:00:38 20° SW
Cosmos 1707 2.6 23:00:36 59° S 23:01:17 83° E 23:05:10 10° N
NOSS 3-1 (A) 4.1 22:54:37 10° NW 23:01:58 86° NE 23:08:57 17° SE
SL-16 R/B 3.9 22:57:45 10° WSW 23:02:42 30° NW 23:07:41 10° NNE
ERS-2 2.2 23:02:36 10° N 23:06:13 68° WNW 23:06:52 53° SW
Okean 2 3.5 23:06:39 50° SSE 23:07:27 63° E 23:11:32 10° NNE
CZ-4C R/B 2.9 23:01:24 10° NW 23:08:34 81° SW 23:14:17 23° SSE
NOSS 3-1 (C) 4.2 23:01:53 10° NW 23:09:13 63° SW 23:14:03 28° SSE
USA 290 2.8 23:10:46 46° E 23:10:46 46° E 23:13:36 10° NE
Cosmos 1238 Rocket 2.5 23:09:02 10° N 23:11:57 53° E 23:11:57 53° E
Gblst 52 Del rocket 4.3 23:09:31 10° WSW 23:15:52 87° NNW 23:21:33 10° ENE
Cosmos 2237 Rocket 3.3 23:14:56 25° SE 23:16:42 29° ESE 23:21:34 10° NE
KORONAS-FOTON 3.7 23:16:49 61° SSE 23:17:23 78° E 23:21:13 10° NNE
Cosmos 1470 3.6 23:14:52 10° NNW 23:18:25 35° W 23:19:01 33° WSW
Cosmos 1726 4.2 23:16:27 10° NW 23:18:44 16° W 23:19:26 15° W
Cosmos 1300 Rocket 4.1 23:15:38 10° NNW 23:19:48 45° W 23:20:51 37° SW
NOSS 2-2 (D) 4.3 23:15:20 10° NW 23:20:11 79° NE 23:25:35 16° SE
COSMOS 2428 2.7 23:17:53 36° SSW 23:20:16 76° ESE 23:25:58 10° NNE
Cosmos 1745 Rocket 4.2 23:15:32 10° N 23:21:46 66° ENE 23:25:01 29° SSE
PSLV R/B 3.7 23:18:04 10° NNE 23:22:26 65° ESE 23:23:41 44° SSE
Cosmos 2151 Rocket 3.5 23:18:18 10° N 23:22:43 90° WNW 23:23:57 48° S
Resurs 1-4 Rocket 4.4 23:20:53 10° ENE 23:22:50 12° E 23:24:46 10° ESE
ALOS 2 3.6 23:22:00 30° SW 23:23:01 34° W 23:27:03 10° NNW
Cosmos 1242 Rocket 2.6 23:22:17 10° NNW 23:25:50 57° W 23:26:06 55° WSW
USA 305 3.8 23:26:44 31° ESE 23:26:44 31° ESE 23:29:57 10° ENE
Okean 2 Rocket 3.1 23:22:16 10° NNW 23:26:49 73° W 23:28:05 46° SSW
Cosmos 2360 Rocket 3.4 23:22:24 11° WSW 23:27:26 37° NW 23:32:41 10° NNE
Cosmos 405 Rocket 2.9 23:28:20 49° SE 23:28:51 54° E 23:32:35 10° NNE
Cosmos 1943 Rocket 4.0 23:25:00 10° NNW 23:29:55 29° NE 23:34:49 10° ESE
In-Cosmos 22 4.2 23:29:31 35° SSW 23:31:57 74° WNW 23:37:26 10° N
Cosmos 1437 Rocket 2.8 23:29:00 10° N 23:32:45 63° ENE 23:33:33 48° SE
Nimbus 7 Rocket 4.3 23:27:35 10° NNE 23:33:31 84° ESE 23:36:12 34° SSW
Cosmos 1908 3.1 23:30:26 10° NNW 23:34:13 76° W 23:34:48 60° SSW
Cosmos 1867 3.5 23:33:44 33° SW 23:36:16 87° SE 23:41:48 10° NE
Cosmos 2298 Rocket 4.3 23:34:33 36° SSE 23:36:24 55° ESE 23:41:35 10° NNE
Meteor 1-21 4.5 23:34:35 31° SSW 23:37:22 65° WNW 23:43:10 10° N
Cosmos 1626 2.0 23:37:36 60° SW 23:38:08 76° W 23:41:50 10° N
GP-B 4.4 23:36:07 10° NNE 23:40:07 32° E 23:42:03 23° SE
USA 215 3.4 23:36:27 10° NE 23:43:00 75° NNW 23:49:33 10° WSW
Cosmos 1953 2.3 23:39:42 10° N 23:43:44 76° E 23:44:46 48° SSE
Cosmos 2278 Rocket 2.1 23:40:14 10° NNW 23:45:57 84° WSW 23:48:51 30° SSE
Cosmos 1674 3.3 23:50:45 38° WSW 23:51:33 44° WNW 23:55:11 10° N
